Hourly Weather Roundup
Issued by NWS Central Illinois

Home | Current Version | Previous Version | Text Only | Print | Product List | Glossary On
Versions: 1 2 3 4 5 6 7 8 9 10 11 12 13 14 15 16 17 18 19 20 21 22 23 24 25 26 27 28 29 30 31 32 33 34 35 36 37 38 39 40 41 42 43 44 45 46 47 48 49 50
000
NZUS43 KILX 222010
HWRILX

AREA WEATHER ROUNDUP
NATIONAL WEATHER SERVICE, LINCOLN IL
200 PM CST SUN JAN 22 2017


CITY           SKY/WX    TMP DP  RH WIND       PRES   REMARKS
BLOOMINGTON    CLOUDY    44  41  89 N18       29.57S
CHAMPAIGN      CLOUDY    50  46  86 NE12      29.52S FOG
DANVILLE       CLOUDY    49  48  98 N10       29.50S FOG
DECATUR        CLOUDY    48  47  96 NE9       29.53R FOG
EFFINGHAM      CLOUDY    61  54  77 N6        29.47F
FLORA          CLOUDY    64  53  68 NE10      29.44F
GALESBURG      CLOUDY    41  38  87 N9        29.63S
JACKSONVILLE   CLOUDY    48  41  75 N15       29.56R HAZE
LACON          CLOUDY    43  38  82 N9        29.60S
LAWRENCEVILLE  PTSUNNY   60  52  74 NE17      29.43F
LITCHFIELD     CLOUDY    48  46  93 N15       29.51R FOG
$$


CITY           SKY/WX    TMP DP  RH WIND       PRES   REMARKS
LINCOLN        CLOUDY    49  44  84 N14       29.56R
MACOMB         CLOUDY    41  40  95 N15       29.63F FOG     WCI  34
MATTOON        MOSUNNY   58  53  84 N16       29.47F
MT CARMEL AP   MOSUNNY   60  51  70 NE13      29.42F
OLNEY-NOBLE AP PTSUNNY   61  55  82 NE12G17   29.44S
PARIS          PTSUNNY   61  53  75 NE12      29.49F
PEORIA         CLOUDY    46  37  71 N13G21    29.59F
PONTIAC        CLOUDY    44  44 100 N14       29.60R
RANTOUL        CLOUDY    47  46  97 N13       29.54R FOG
SPRINGFIELD    CLOUDY    52  44  74 N15       29.54F
TAYLORVILLE    CLOUDY    50  48  92 N10       29.52S
$$

...REGIONAL REPORTS...


CITY           SKY/WX    TMP DP  RH WIND       PRES   REMARKS
CHICAGO O`HARE CLOUDY    45  39  79 N6        29.60S
KANKAKEE       CLOUDY    44  43  97 N10       29.59R FOG
MOLINE         CLOUDY    42  34  73 N3        29.64F
MOUNT STERLING CLOUDY    46  40  79 N20       29.57F
MOUNT VERNON   CLOUDY    63  52  67 NE13      29.42F
PITTSFIELD     MOSUNNY   51  40  63 NW17G23   29.57R
QUINCY         CLOUDY    45  39  79 N18       29.59F
ROCKFORD       PTSUNNY   43  36  76 NW8       29.64F
$$


CITY           SKY/WX    TMP DP  RH WIND       PRES   REMARKS
BURLINGTON     CLOUDY    38  37  97 NW15      29.64S FOG     WCI  29
CEDAR RAPIDS   CLOUDY    35  32  88 NW8       29.66S WCI  29
DES MOINES     CLOUDY    38  35  89 NW8       29.72S FOG     WCI  32
KIRKSVILLE     CLOUDY    37  36  96 NW13      29.66S FOG     WCI  29
OTTUMWA        CLOUDY    38  33  82 NW16      29.67S WCI  29
ST LOUIS       CLOUDY    52  45  77 N10       29.51R
$$


CITY           SKY/WX    TMP DP  RH WIND       PRES   REMARKS
TERRE HAUTE    CLOUDY    60  50  69 N7        29.47F
EVANSVILLE     CLOUDY    61  51  70 NE7       29.41F
INDIANAPOLIS   CLOUDY    61  50  67 N9        29.47F
LAFAYETTE      MOSUNNY   53  49  86 N9        29.52S
MADISON        CLOUDY    41  37  86 NW5       29.63S
MILWAUKEE      CLOUDY    45  37  73 W3        29.63R
$$





USA.gov is the U.S. government's official web portal to all federal, state and local government web resources and services.